Weather in Darganata

Turkmenistan     40°28′47″N   62°09′17″E
temp.,
°C
wind,
m/s
gust,
m/s
humid.,
%
clouds,
%
prec.,
mm/h
press.,
hPa
HPBL,
m
6 march, sat
sat623:00+9ene6113782 0.0 1017228
02:00+7ne475233 0.0 1015123
05:00+6nne6105467 0.0 1014212
08:00+6n91351100 0.0 1013313
11:00+7n6853100 0.3 1017630
14:00+8nnw7944100 0.1 1016927
17:00+8nw7845100 0.1 10181126
20:00+5nw6870100 0.3 1020703
7 march, sun
sun723:00+5w3569100 1.7 1022517
02:00+4ssw3476100 0.1 1022141
05:00+3ssw348183 0.1 102158
08:00+3ssw34810 0.0 102178
11:00+7s44530 0.0 1021620
14:00+10sse45370 0.0 10181066
17:00+12sse56390 0.0 10161129
20:00+9sse464626 0.0 1016116
8 march, mon
mon823:00+9sse444764 0.0 101672
02:00+8s4555100 0.0 101669
05:00+8s3463100 0.0 101644
08:00+8ssw346699 0.0 101748
11:00+12sw454967 0.0 1018443
14:00+15wsw45400 0.0 1018995
17:00+15w44406 0.0 10171096
20:00+12wnw125333 0.0 101724
9 march, tue
tue923:00+10n235719 0.0 101625
02:00+9ne126157 0.0 101522
05:00+9e235961 0.0 101222
08:00+10e4448100 0.0 101158
11:00+13e5740100 0.0 1011237
14:00+17e5732100 0.0 1008667
17:00+19sse232670 0.0 10061788
20:00+15nnw454011 0.0 100869
10 march, wed
wed1023:00+12nw564645 0.0 1010102
02:00+11wnw5105196 0.0 1011362
05:00+9wnw6105598 0.0 1013351
08:00+8w5106240 0.0 1017505
11:00+9wnw786127 0.0 1020999
14:00+9nw565470 0.1 10211172
17:00+9nnw454156 0.1 10211290
20:00+7ne46450 0.0 1023302